| time (UTC) | temp C | wind direction | speed KPH | gust KPH | rain 1hr cm | rain 24hr cm | rain mn cm | humidity % | barometer mb |
| 20260508125817 | 11 | 79 | 1.6 | 3.2 | 0.00 | 2.39 | 0.00 | 93 | 1018.9 |
| 20260508125308 | 10 | 76 | 1.6 | 3.2 | 0.00 | 2.39 | 0.00 | 94 | 1018.9 |
| 20260508124811 | 10 | 78 | 0.0 | 3.2 | 0.00 | 2.39 | 0.00 | 95 | 1018.8 |
| 20260508124313 | 10 | 61 | 0.0 | 3.2 | 0.00 | 2.39 | 0.00 | 95 | 1018.7 |
| 20260508123808 | 10 | 61 | 0.0 | 3.2 | 0.00 | 2.41 | 0.00 | 96 | 1018.6 |
| 20260508123308 | 9 | 338 | 0.0 | 1.6 | 0.00 | 2.41 | 0.00 | 96 | 1018.7 |
| 20260508122803 | 9 | 316 | 0.0 | 1.6 | 0.00 | 2.44 | 0.00 | 95 | 1018.6 |
| 20260508122306 | 9 | 316 | 0.0 | 1.6 | 0.00 | 2.46 | 0.00 | 95 | 1018.6 |
| 20260508121801 | 9 | 316 | 0.0 | 3.2 | 0.00 | 2.51 | 0.00 | 95 | 1018.6 |
| 20260508121302 | 8 | 316 | 0.0 | 3.2 | 0.00 | 2.54 | 0.00 | 95 | 1018.6 |
| 20260508120800 | 8 | 312 | 0.0 | 1.6 | 0.00 | 2.64 | 0.00 | 95 | 1018.4 |
| 20260508120305 | 8 | 312 | 0.0 | 1.6 | 0.00 | 2.69 | 0.00 | 95 | 1018.4 |
| 20260508120144 | 8 | 312 | 0.0 | 3.2 | 0.00 | 2.69 | 0.00 | 95 | 1018.3 |
| 20260508115305 | 8 | 312 | 0.0 | 3.2 | 0.00 | 2.69 | 0.00 | 95 | 1018.2 |
| 20260508114801 | 8 | 241 | 0.0 | 1.6 | 0.00 | 2.69 | 0.00 | 95 | 1018.1 |
| 20260508114304 | 8 | 242 | 0.0 | 1.6 | 0.00 | 2.69 | 0.00 | 95 | 1018.0 |
| 20260508113755 | 8 | 273 | 0.0 | 0.0 | 0.00 | 2.72 | 0.00 | 95 | 1017.9 |
| 20260508113249 | 8 | 273 | 0.0 | 0.0 | 0.00 | 2.72 | 0.00 | 95 | 1017.9 |
| 20260508112746 | 8 | 273 | 0.0 | 0.0 | 0.00 | 2.74 | 0.00 | 95 | 1017.7 |
| 20260508112241 | 8 | 273 | 0.0 | 0.0 | 0.00 | 2.77 | 0.00 | 94 | 1017.8 |
| 20260508111733 | 8 | 273 | 0.0 | 0.0 | 0.00 | 2.82 | 0.00 | 94 | 1017.7 |
| 20260508111225 | 8 | 273 | 0.0 | 0.0 | 0.00 | 2.84 | 0.00 | 94 | 1017.6 |
| 20260508110722 | 8 | 273 | 0.0 | 0.0 | 0.00 | 2.87 | 0.00 | 94 | 1017.5 |
| 20260508110223 | 8 | 273 | 0.0 | 1.6 | 0.00 | 2.87 | 0.00 | 94 | 1017.5 |
| 20260508110041 | 8 | 273 | 0.0 | 1.6 | 0.00 | 2.87 | 0.00 | 94 | 1017.4 |
| 20260508105220 | 8 | 273 | 0.0 | 0.0 | 0.00 | 2.87 | 0.00 | 94 | 1017.4 |
| 20260508104717 | 8 | 273 | 0.0 | 0.0 | 0.00 | 2.87 | 0.00 | 94 | 1017.2 |
| 20260508104215 | 8 | 273 | 0.0 | 0.0 | 0.00 | 2.90 | 0.00 | 94 | 1017.1 |
| 20260508103714 | 8 | 273 | 0.0 | 0.0 | 0.00 | 2.90 | 0.00 | 94 | 1017.0 |
| 20260508103515 | 8 | 273 | 0.0 | 0.0 | 0.00 | 2.90 | 0.00 | 94 | 1016.8 |
| 20260508102716 | 8 | 273 | 0.0 | 3.2 | 0.00 | 2.90 | 0.00 | 94 | 1016.8 |
| 20260508102211 | 8 | 273 | 0.0 | 3.2 | 0.00 | 2.90 | 0.00 | 94 | 1016.7 |
| 20260508101711 | 8 | 275 | 0.0 | 1.6 | 0.00 | 2.90 | 0.00 | 94 | 1016.6 |
| 20260508101209 | 8 | 275 | 0.0 | 1.6 | 0.00 | 2.90 | 0.00 | 94 | 1016.5 |
| 20260508101019 | 8 | 275 | 0.0 | 1.6 | 0.00 | 2.90 | 0.00 | 94 | 1016.5 |
| 20260508100208 | 8 | 275 | 0.0 | 1.6 | 0.00 | 2.90 | 0.00 | 94 | 1016.6 |
| 20260508095710 | 8 | 275 | 0.0 | 0.0 | 0.00 | 2.90 | 0.00 | 94 | 1016.6 |
| 20260508095206 | 9 | 275 | 0.0 | 0.0 | 0.00 | 2.90 | 0.00 | 94 | 1016.5 |
| 20260508094706 | 9 | 275 | 0.0 | 0.0 | 0.00 | 2.90 | 0.00 | 94 | 1016.4 |
| 20260508094207 | 9 | 275 | 0.0 | 0.0 | 0.00 | 2.90 | 0.00 | 94 | 1016.5 |
| 20260508093704 | 9 | 275 | 0.0 | 0.0 | 0.00 | 2.90 | 0.00 | 94 | 1016.5 |
| 20260508093205 | 9 | 275 | 0.0 | 0.0 | 0.00 | 2.90 | 0.00 | 94 | 1016.4 |
| 20260508092701 | 9 | 275 | 0.0 | 0.0 | 0.00 | 2.90 | 0.00 | 94 | 1016.2 |
| 20260508092156 | 9 | 275 | 0.0 | 0.0 | 0.00 | 2.90 | 0.00 | 94 | 1016.3 |
| 20260508091655 | 9 | 275 | 0.0 | 0.0 | 0.00 | 2.90 | 0.00 | 94 | 1016.2 |
| 20260508091455 | 9 | 275 | 0.0 | 1.6 | 0.00 | 2.90 | 0.00 | 94 | 1016.2 |
| 20260508090654 | 10 | 275 | 0.0 | 1.6 | 0.00 | 2.90 | 0.00 | 94 | 1016.1 |
| 20260508090151 | 10 | 275 | 0.0 | 1.6 | 0.00 | 2.90 | 0.00 | 94 | 1016.2 |
| 20260508085647 | 10 | 275 | 0.0 | 1.6 | 0.00 | 2.92 | 0.00 | 94 | 1016.1 |
| 20260508085146 | 10 | 275 | 0.0 | 1.6 | 0.00 | 2.92 | 0.00 | 94 | 1016.1 |
| 20260508084648 | 10 | 275 | 0.0 | 0.0 | 0.00 | 2.92 | 0.00 | 94 | 1016.0 |
| 20260508084145 | 10 | 275 | 0.0 | 1.6 | 0.00 | 2.92 | 0.00 | 94 | 1016.1 |
| 20260508083644 | 10 | 275 | 0.0 | 1.6 | 0.00 | 2.92 | 0.00 | 94 | 1016.1 |
| 20260508083141 | 10 | 275 | 0.0 | 0.0 | 0.00 | 2.92 | 0.00 | 94 | 1016.0 |
| 20260508082638 | 10 | 275 | 0.0 | 0.0 | 0.00 | 2.92 | 0.00 | 94 | 1015.9 |
| 20260508082136 | 10 | 275 | 0.0 | 0.0 | 0.00 | 2.92 | 0.00 | 94 | 1016.0 |
| 20260508082006 | 10 | 275 | 0.0 | 1.6 | 0.00 | 2.92 | 0.00 | 94 | 1016.0 |
| 20260508081133 | 10 | 275 | 0.0 | 1.6 | 0.00 | 2.92 | 0.00 | 94 | 1016.0 |
| 20260508080630 | 10 | 275 | 0.0 | 0.0 | 0.00 | 2.95 | 0.00 | 94 | 1015.8 |
| 20260508080130 | 10 | 275 | 0.0 | 0.0 | 0.00 | 2.95 | 0.00 | 94 | 1015.8 |
| 20260508075630 | 10 | 275 | 0.0 | 0.0 | 0.00 | 2.95 | 0.00 | 94 | 1015.7 |
| 20260508075310 | 10 | 275 | 0.0 | 0.0 | 0.00 | 2.95 | 0.00 | 94 | 1015.7 |
| 20260508075238 | 10 | 275 | 0.0 | 0.0 | 0.00 | 2.95 | 0.00 | 94 | 1015.7 |
| 20260508074131 | 10 | 275 | 0.0 | 0.0 | 0.00 | 2.97 | 0.00 | 94 | 1015.7 |
| 20260508073631 | 10 | 275 | 0.0 | 0.0 | 0.00 | 3.00 | 0.00 | 94 | 1015.6 |
| 20260508073125 | 11 | 275 | 0.0 | 1.6 | 0.00 | 3.02 | 0.00 | 94 | 1015.6 |
| 20260508072620 | 11 | 275 | 0.0 | 1.6 | 0.00 | 3.05 | 0.00 | 94 | 1015.7 |
| 20260508072115 | 11 | 275 | 0.0 | 1.6 | 0.00 | 3.07 | 0.00 | 94 | 1015.6 |
| 20260508071610 | 11 | 275 | 0.0 | 0.0 | 0.00 | 3.10 | 0.00 | 94 | 1015.4 |
| 20260508071106 | 11 | 275 | 0.0 | 0.0 | 0.00 | 3.15 | 0.00 | 94 | 1015.5 |
| 20260508070604 | 11 | 275 | 0.0 | 0.0 | 0.00 | 3.20 | 0.00 | 94 | 1015.5 |
| 20260508065612 | 11 | 275 | 0.0 | 0.0 | 0.00 | 3.28 | 0.00 | 94 | 1015.5 |
| 20260508065602 | 11 | 275 | 0.0 | 0.0 | 0.00 | 3.30 | 0.00 | 94 | 1015.4 |
| 20260508065558 | 11 | 275 | 0.0 | 0.0 | 0.00 | 3.30 | 0.00 | 94 | 1015.4 |
| 20260508064104 | 11 | 275 | 0.0 | 0.0 | 0.00 | 3.30 | 0.00 | 94 | 1015.4 |
| 20260508063924 | 11 | 275 | 0.0 | 0.0 | 0.00 | 3.30 | 0.00 | 94 | 1015.2 |
| 20260508063104 | 11 | 275 | 0.0 | 0.0 | 0.00 | 3.33 | 0.00 | 94 | 1015.3 |
| 20260508062906 | 11 | 275 | 0.0 | 0.0 | 0.00 | 3.33 | 0.00 | 94 | 1015.4 |
| 20260508062058 | 11 | 275 | 0.0 | 0.0 | 0.00 | 3.33 | 0.00 | 94 | 1015.4 |
| 20260508061558 | 11 | 275 | 0.0 | 0.0 | 0.00 | 3.35 | 0.00 | 94 | 1015.5 |
| 20260508061102 | 11 | 275 | 0.0 | 0.0 | 0.00 | 3.35 | 0.00 | 94 | 1015.4 |
| 20260508060602 | 11 | 275 | 0.0 | 0.0 | 0.00 | 3.38 | 0.00 | 94 | 1015.4 |
| 20260508060058 | 11 | 275 | 0.0 | 0.0 | 0.00 | 3.40 | 0.00 | 94 | 1015.5 |
| 20260508055900 | 11 | 275 | 0.0 | 0.0 | 0.00 | 3.45 | 0.00 | 94 | 1015.5 |
| 20260508055057 | 11 | 275 | 0.0 | 0.0 | 0.00 | 3.48 | 0.00 | 94 | 1015.5 |
| 20260508054913 | 11 | 275 | 0.0 | 0.0 | 0.00 | 3.61 | 0.00 | 94 | 1015.5 |
| 20260508054055 | 11 | 275 | 0.0 | 0.0 | 0.00 | 3.63 | 0.00 | 94 | 1015.4 |
| 20260508053555 | 11 | 275 | 0.0 | 0.0 | 0.00 | 3.68 | 0.00 | 94 | 1015.4 |
| 20260508053052 | 11 | 275 | 0.0 | 1.6 | 0.00 | 3.73 | 0.00 | 94 | 1015.4 |
| 20260508052553 | 12 | 275 | 0.0 | 1.6 | 0.00 | 3.78 | 0.00 | 94 | 1015.4 |
| 20260508052402 | 12 | 275 | 0.0 | 0.0 | 0.00 | 3.89 | 0.00 | 94 | 1015.4 |
| 20260508051901 | 12 | 275 | 0.0 | 0.0 | 0.00 | 4.06 | 0.00 | 94 | 1015.4 |
| 20260508051403 | 12 | 275 | 0.0 | 0.0 | 0.00 | 4.17 | 0.00 | 94 | 1015.4 |
| 20260508050553 | 12 | 275 | 0.0 | 0.0 | 0.00 | 4.19 | 0.00 | 94 | 1015.3 |
| 20260508050048 | 12 | 275 | 0.0 | 0.0 | 0.00 | 4.19 | 0.00 | 94 | 1015.2 |
| 20260508045549 | 12 | 275 | 0.0 | 0.0 | 0.00 | 4.19 | 0.00 | 94 | 1015.4 |
| 20260508045045 | 12 | 275 | 0.0 | 0.0 | 0.00 | 4.19 | 0.00 | 94 | 1015.2 |
| 20260508044547 | 12 | 275 | 0.0 | 0.0 | 0.00 | 4.19 | 0.00 | 94 | 1015.2 |
| 20260508044044 | 12 | 275 | 0.0 | 0.0 | 0.00 | 4.19 | 0.00 | 94 | 1015.1 |
| 20260508043543 | 12 | 275 | 0.0 | 0.0 | 0.00 | 4.19 | 0.00 | 94 | 1015.0 |
| 20260508043405 | 12 | 275 | 0.0 | 1.6 | 0.00 | 4.19 | 0.00 | 94 | 1015.0 |
| 20260508042548 | 12 | 275 | 0.0 | 1.6 | 0.00 | 4.19 | 0.00 | 94 | 1015.1 |
| 20260508042045 | 12 | 275 | 0.0 | 0.0 | 0.00 | 4.19 | 0.00 | 94 | 1014.9 |
| 20260508041548 | 12 | 275 | 0.0 | 0.0 | 0.00 | 4.19 | 0.00 | 94 | 1015.1 |
| 20260508041047 | 12 | 275 | 0.0 | 0.0 | 0.00 | 4.19 | 0.00 | 94 | 1015.0 |
| 20260508040540 | 12 | 275 | 0.0 | 0.0 | 0.00 | 4.19 | 0.00 | 94 | 1015.0 |
| 20260508040041 | 13 | 275 | 0.0 | 0.0 | 0.00 | 4.19 | 0.00 | 94 | 1014.9 |
| 20260508035541 | 13 | 275 | 0.0 | 1.6 | 0.00 | 4.19 | 4.19 | 94 | 1015.0 |
| 20260508035414 | 13 | 275 | 0.0 | 1.6 | 0.00 | 4.19 | 4.19 | 94 | 1014.9 |
| 20260508034908 | 13 | 275 | 0.0 | 0.0 | 0.00 | 4.19 | 4.19 | 94 | 1014.8 |
| 20260508034036 | 13 | 275 | 0.0 | 0.0 | 0.00 | 4.19 | 4.19 | 94 | 1014.8 |
| 20260508033537 | 13 | 275 | 0.0 | 0.0 | 0.00 | 4.19 | 4.19 | 94 | 1014.9 |
| 20260508033036 | 13 | 275 | 0.0 | 0.0 | 0.00 | 4.22 | 4.19 | 94 | 1014.8 |
| 20260508032533 | 13 | 275 | 0.0 | 0.0 | 0.00 | 4.24 | 4.19 | 94 | 1015.0 |
| 20260508032030 | 13 | 275 | 0.0 | 1.6 | 0.00 | 4.27 | 4.19 | 94 | 1015.0 |
| 20260508031530 | 13 | 275 | 0.0 | 1.6 | 0.00 | 4.32 | 4.19 | 95 | 1015.0 |
| 20260508031030 | 13 | 275 | 0.0 | 1.6 | 0.00 | 4.39 | 4.19 | 94 | 1015.0 |
| 20260508030530 | 13 | 275 | 0.0 | 0.0 | 0.00 | 4.47 | 4.19 | 94 | 1014.8 |
| 20260508030029 | 13 | 275 | 0.0 | 1.6 | 0.00 | 4.50 | 4.19 | 94 | 1014.7 |
| 20260508025530 | 13 | 275 | 0.0 | 1.6 | 0.00 | 4.50 | 4.19 | 94 | 1014.6 |
| 20260508025034 | 13 | 275 | 0.0 | 1.6 | 0.00 | 4.60 | 4.19 | 94 | 1014.7 |
| 20260508024533 | 13 | 277 | 0.0 | 0.0 | 0.00 | 4.70 | 4.19 | 94 | 1014.3 |
| 20260508024029 | 13 | 277 | 0.0 | 0.0 | 0.00 | 4.80 | 4.19 | 94 | 1014.4 |
| 20260508023529 | 13 | 277 | 0.0 | 0.0 | 0.00 | 4.90 | 4.19 | 94 | 1014.5 |
| 20260508023018 | 13 | 277 | 0.0 | 1.6 | 0.00 | 4.95 | 4.19 | 94 | 1014.4 |
| 20260508022512 | 13 | 277 | 0.0 | 1.6 | 0.00 | 4.95 | 4.19 | 94 | 1014.4 |
| 20260508022011 | 13 | 238 | 0.0 | 1.6 | 0.00 | 4.95 | 4.19 | 94 | 1014.3 |
| 20260508021842 | 13 | 238 | 0.0 | 3.2 | 0.00 | 4.98 | 4.19 | 94 | 1014.2 |
| 20260508021007 | 13 | 269 | 0.0 | 3.2 | 0.00 | 5.00 | 4.19 | 94 | 1014.0 |
| 20260508020508 | 13 | 314 | 0.0 | 1.6 | 0.00 | 5.03 | 4.19 | 94 | 1013.9 |
| 20260508020010 | 13 | 323 | 0.0 | 1.6 | 0.00 | 5.03 | 4.19 | 94 | 1013.8 |
| 20260508015508 | 13 | 323 | 0.0 | 1.6 | 0.00 | 5.05 | 4.19 | 94 | 1013.9 |
| 20260508015005 | 13 | 329 | 0.0 | 1.6 | 0.00 | 5.11 | 4.19 | 94 | 1013.8 |
| 20260508014504 | 13 | 329 | 0.0 | 1.6 | 0.00 | 5.16 | 4.19 | 94 | 1013.7 |
| 20260508014004 | 13 | 329 | 0.0 | 3.2 | 0.00 | 5.21 | 4.19 | 94 | 1013.5 |
| 20260508013839 | 13 | 329 | 0.0 | 3.2 | 0.00 | 5.26 | 4.19 | 94 | 1013.4 |
| 20260508013002 | 13 | 323 | 0.0 | 3.2 | 0.00 | 5.33 | 4.19 | 94 | 1013.5 |
| 20260508012843 | 13 | 322 | 0.0 | 1.6 | 0.00 | 5.41 | 4.19 | 94 | 1013.6 |
| 20260508012001 | 13 | 325 | 0.0 | 1.6 | 0.00 | 5.46 | 4.19 | 94 | 1013.6 |
| 20260508011503 | 13 | 325 | 0.0 | 1.6 | 0.00 | 5.49 | 4.19 | 94 | 1013.4 |
| 20260508011004 | 13 | 325 | 0.0 | 1.6 | 0.00 | 5.49 | 4.19 | 94 | 1013.1 |
| 20260508010842 | 13 | 325 | 0.0 | 1.6 | 0.00 | 5.49 | 4.19 | 94 | 1012.9 |
| 20260508005956 | 13 | 325 | 0.0 | 1.6 | 0.00 | 5.54 | 4.19 | 94 | 1012.8 |
| 20260508005758 | 13 | 325 | 0.0 | 1.6 | 0.00 | 5.59 | 4.19 | 94 | 1012.6 |
| 20260508004954 | 14 | 324 | 0.0 | 1.6 | 0.00 | 5.69 | 4.19 | 94 | 1012.7 |
| 20260508004453 | 14 | 324 | 0.0 | 3.2 | 0.00 | 5.74 | 4.19 | 94 | 1012.5 |
| 20260508003952 | 14 | 324 | 0.0 | 3.2 | 0.00 | 5.77 | 4.19 | 94 | 1012.3 |
| 20260508003453 | 14 | 321 | 0.0 | 1.6 | 0.00 | 5.77 | 4.19 | 94 | 1012.4 |
| 20260508002953 | 14 | 318 | 0.0 | 1.6 | 0.00 | 5.79 | 4.19 | 94 | 1012.3 |
| 20260508002451 | 14 | 318 | 0.0 | 1.6 | 0.00 | 5.82 | 4.19 | 93 | 1012.1 |
| 20260508001950 | 14 | 316 | 0.0 | 3.2 | 0.00 | 5.82 | 4.19 | 94 | 1012.0 |
| 20260508001839 | 14 | 316 | 1.6 | 3.2 | 0.00 | 5.82 | 4.19 | 94 | 1011.9 |
| 20260508000949 | 14 | 61 | 1.6 | 3.2 | 0.00 | 5.82 | 4.19 | 94 | 1011.8 |
| 20260508000446 | 14 | 156 | 0.0 | 3.2 | 0.00 | 5.82 | 4.19 | 94 | 1011.9 |
| 20260508000257 | 14 | 156 | 1.6 | 3.2 | 0.00 | 5.82 | 4.19 | 93 | 1011.8 |
| 20260507235444 | 14 | 176 | 1.6 | 4.8 | 0.00 | 5.82 | 4.19 | 93 | 1011.5 |
| 20260507235250 | 14 | 32 | 1.6 | 6.4 | 0.00 | 5.84 | 4.19 | 93 | 1011.3 |
| 20260507234444 | 14 | 22 | 1.6 | 6.4 | 0.00 | 5.84 | 4.19 | 93 | 1011.4 |
| 20260507233949 | 14 | 250 | 1.6 | 9.7 | 0.00 | 5.84 | 4.19 | 93 | 1011.5 |
| 20260507233446 | 14 | 50 | 1.6 | 9.7 | 0.08 | 5.84 | 4.19 | 93 | 1011.3 |
| 20260507232943 | 14 | 41 | 1.6 | 4.8 | 0.10 | 5.84 | 4.19 | 93 | 1011.4 |
| 20260507232447 | 14 | 25 | 1.6 | 4.8 | 0.18 | 5.84 | 4.19 | 93 | 1011.3 |
| 20260507231940 | 14 | 42 | 1.6 | 4.8 | 0.20 | 5.84 | 4.19 | 93 | 1011.4 |
| 20260507231439 | 14 | 55 | 1.6 | 4.8 | 0.25 | 5.84 | 4.19 | 93 | 1011.1 |
| 20260507230944 | 15 | 92 | 1.6 | 4.8 | 0.36 | 5.84 | 4.19 | 93 | 1011.1 |
| 20260507230439 | 15 | 114 | 1.6 | 4.8 | 0.46 | 5.84 | 4.19 | 93 | 1010.7 |
| 20260507225939 | 15 | 62 | 1.6 | 4.8 | 0.66 | 5.18 | 4.19 | 93 | 1010.4 |
| 20260507225440 | 15 | 38 | 1.6 | 4.8 | 0.76 | 5.18 | 4.19 | 93 | 1010.5 |
| 20260507224941 | 15 | 51 | 3.2 | 6.4 | 0.94 | 5.18 | 4.19 | 92 | 1010.7 |
| 20260507224439 | 15 | 11 | 3.2 | 9.7 | 1.02 | 5.18 | 4.19 | 92 | 1010.7 |
| 20260507223942 | 15 | 309 | 3.2 | 9.7 | 1.04 | 5.18 | 4.19 | 92 | 1010.7 |
| 20260507223438 | 15 | 48 | 1.6 | 6.4 | 0.99 | 5.18 | 4.09 | 92 | 1010.7 |
| 20260507222934 | 15 | 90 | 1.6 | 4.8 | 0.99 | 5.18 | 4.09 | 92 | 1010.6 |
| 20260507222433 | 15 | 114 | 3.2 | 4.8 | 1.04 | 5.18 | 4.01 | 92 | 1010.6 |
| 20260507221938 | 15 | 138 | 1.6 | 4.8 | 1.14 | 5.18 | 3.96 | 91 | 1010.3 |
| 20260507221433 | 15 | 43 | 1.6 | 6.4 | 1.17 | 5.18 | 3.89 | 91 | 1010.0 |
| 20260507220933 | 15 | 30 | 3.2 | 6.4 | 1.35 | 5.18 | 3.81 | 91 | 1010.1 |
| 20260507220809 | 15 | 71 | 3.2 | 11.3 | 1.70 | 5.18 | 3.71 | 91 | 1010.1 |
| 20260507215932 | 16 | 32 | 3.2 | 11.3 | 1.52 | 3.66 | 3.51 | 90 | 1010.6 |
| 20260507215741 | 16 | 341 | 3.2 | 8.0 | 1.45 | 3.66 | 3.40 | 90 | 1010.1 |
| 20260507214932 | 16 | 87 | 3.2 | 9.7 | 1.27 | 3.66 | 3.20 | 89 | 1009.1 |
| 20260507214752 | 16 | 51 | 3.2 | 9.7 | 1.19 | 3.66 | 3.17 | 88 | 1009.4 |
| 20260507213930 | 16 | 31 | 3.2 | 6.4 | 1.17 | 3.66 | 3.15 | 88 | 1009.1 |
| 20260507213754 | 17 | 27 | 3.2 | 4.8 | 1.14 | 3.66 | 3.12 | 87 | 1008.9 |
| 20260507212929 | 17 | 90 | 3.2 | 6.4 | 1.12 | 3.66 | 3.10 | 86 | 1008.8 |
| 20260507212432 | 18 | 250 | 3.2 | 8.0 | 0.99 | 3.66 | 2.95 | 84 | 1008.8 |
| 20260507212255 | 18 | 202 | 3.2 | 9.7 | 0.86 | 3.66 | 2.82 | 82 | 1008.5 |
| 20260507211431 | 20 | 44 | 3.2 | 9.7 | 0.76 | 3.66 | 2.74 | 78 | 1008.4 |
| 20260507210925 | 20 | 42 | 4.8 | 14.5 | 0.46 | 3.66 | 2.36 | 75 | 1008.5 |
| 20260507210423 | 21 | 44 | 4.8 | 14.5 | 0.05 | 3.66 | 2.03 | 71 | 1008.8 |
| 20260507205921 | 23 | 69 | 4.8 | 24.1 | 0.03 | 3.63 | 1.98 | 66 | 1008.4 |
| 20260507205422 | 25 | 40 | 3.2 | 24.1 | 0.00 | 3.63 | 1.98 | 62 | 1008.1 |
| 20260507204922 | 25 | 280 | 1.6 | 6.4 | 0.00 | 3.63 | 1.98 | 62 | 1008.2 |
| 20260507204421 | 25 | 140 | 1.6 | 6.4 | 0.00 | 3.63 | 1.98 | 62 | 1007.9 |
| 20260507203917 | 25 | 164 | 1.6 | 6.4 | 0.00 | 3.63 | 1.98 | 62 | 1008.1 |
| 20260507203414 | 26 | 123 | 3.2 | 6.4 | 0.00 | 3.63 | 1.98 | 59 | 1007.8 |
| 20260507202913 | 26 | 257 | 3.2 | 8.0 | 0.00 | 3.63 | 1.98 | 60 | 1008.1 |
| 20260507202411 | 25 | 85 | 3.2 | 8.0 | 0.00 | 3.63 | 1.98 | 62 | 1008.1 |
| 20260507201913 | 25 | 240 | 3.2 | 6.4 | 0.00 | 3.63 | 1.98 | 64 | 1008.1 |
| 20260507201744 | 25 | 282 | 1.6 | 6.4 | 0.00 | 3.63 | 1.98 | 62 | 1008.0 |
| 20260507200907 | 25 | 202 | 1.6 | 4.8 | 0.00 | 3.63 | 1.98 | 64 | 1008.1 |
| 20260507200416 | 25 | 58 | 1.6 | 4.8 | 0.00 | 3.63 | 1.98 | 65 | 1008.1 |
| 20260507195910 | 25 | 318 | 1.6 | 6.4 | 0.00 | 3.63 | 1.98 | 64 | 1008.3 |
| 20260507195412 | 24 | 158 | 3.2 | 6.4 | 0.00 | 3.63 | 1.98 | 66 | 1008.2 |
| 20260507194909 | 25 | 138 | 3.2 | 8.0 | 0.00 | 3.63 | 1.98 | 68 | 1008.4 |
| 20260507194719 | 25 | 211 | 3.2 | 8.0 | 0.00 | 3.63 | 1.98 | 64 | 1008.4 |
| 20260507193903 | 25 | 201 | 3.2 | 11.3 | 0.00 | 3.63 | 1.98 | 64 | 1008.4 |
| 20260507193614 | 25 | 288 | 3.2 | 12.9 | 0.00 | 3.63 | 1.98 | 64 | 1008.7 |
| 20260507193518 | 25 | 314 | 3.2 | 14.5 | 0.00 | 3.63 | 1.98 | 64 | 1008.6 |
| 20260507192404 | 25 | 34 | 3.2 | 12.9 | 0.00 | 3.63 | 1.98 | 64 | 1008.5 |
| 20260507191851 | 25 | 212 | 3.2 | 9.7 | 0.00 | 3.63 | 1.98 | 66 | 1008.8 |
| 20260507191347 | 24 | 169 | 3.2 | 9.7 | 0.00 | 3.63 | 1.98 | 67 | 1008.7 |
| 20260507190839 | 24 | 227 | 3.2 | 9.7 | 0.00 | 3.63 | 1.98 | 68 | 1008.7 |
| 20260507190334 | 24 | 209 | 1.6 | 9.7 | 0.00 | 3.63 | 1.98 | 67 | 1008.8 |
| 20260507185830 | 24 | 325 | 1.6 | 11.3 | 0.00 | 3.63 | 1.98 | 69 | 1008.9 |
| 20260507185338 | 23 | 56 | 3.2 | 11.3 | 0.00 | 3.63 | 1.98 | 72 | 1009.0 |
| 20260507184835 | 23 | 208 | 3.2 | 6.4 | 0.00 | 3.63 | 1.98 | 71 | 1008.9 |
| 20260507184333 | 23 | 121 | 3.2 | 6.4 | 0.00 | 3.63 | 1.98 | 75 | 1008.9 |
| 20260507183829 | 23 | 156 | 3.2 | 6.4 | 0.00 | 3.63 | 1.98 | 74 | 1008.9 |
| 20260507183331 | 22 | 298 | 1.6 | 4.8 | 0.00 | 3.63 | 1.98 | 76 | 1008.9 |
| 20260507182836 | 23 | 145 | 1.6 | 8.0 | 0.00 | 3.63 | 1.98 | 74 | 1008.9 |
| 20260507182335 | 23 | 259 | 1.6 | 8.0 | 0.00 | 3.63 | 1.98 | 74 | 1009.0 |
| 20260507182156 | 23 | 271 | 1.6 | 6.4 | 0.00 | 3.63 | 1.98 | 76 | 1009.0 |
| 20260507181329 | 22 | 172 | 1.6 | 6.4 | 0.00 | 3.63 | 1.98 | 75 | 1009.1 |
| 20260507180831 | 22 | 211 | 1.6 | 4.8 | 0.00 | 3.63 | 1.98 | 78 | 1009.2 |
| 20260507180329 | 22 | 111 | 1.6 | 4.8 | 0.00 | 3.63 | 1.98 | 78 | 1009.4 |
| 20260507175832 | 21 | 82 | 1.6 | 12.9 | 0.00 | 3.66 | 1.98 | 80 | 1009.8 |
| 20260507175652 | 22 | 204 | 1.6 | 12.9 | 0.00 | 3.66 | 1.98 | 78 | 1009.8 |
| 20260507174830 | 22 | 186 | 1.6 | 6.4 | 0.00 | 3.68 | 1.98 | 83 | 1009.9 |
| 20260507174646 | 21 | 179 | 1.6 | 6.4 | 0.00 | 3.68 | 1.98 | 83 | 1009.8 |
| 20260507174150 | 21 | 221 | 3.2 | 6.4 | 0.00 | 3.68 | 1.98 | 85 | 1010.0 |
| 20260507173330 | 21 | 215 | 3.2 | 6.4 | 0.00 | 3.71 | 1.98 | 85 | 1010.1 |
| 20260507172833 | 21 | 252 | 3.2 | 6.4 | 0.00 | 3.73 | 1.98 | 87 | 1010.1 |
| 20260507172330 | 20 | 187 | 1.6 | 6.4 | 0.00 | 3.76 | 1.98 | 88 | 1009.6 |
| 20260507171829 | 20 | 327 | 0.0 | 3.2 | 0.00 | 3.84 | 1.98 | 90 | 1009.9 |
| 20260507171328 | 20 | 109 | 0.0 | 3.2 | 0.00 | 3.96 | 1.98 | 91 | 1009.9 |
| 20260507170834 | 20 | 115 | 1.6 | 6.4 | 0.00 | 4.04 | 1.98 | 91 | 1010.1 |
| 20260507170331 | 20 | 228 | 1.6 | 6.4 | 0.00 | 4.24 | 1.98 | 92 | 1010.3 |
| 20260507165829 | 20 | 190 | 1.6 | 8.0 | 0.00 | 4.34 | 1.98 | 92 | 1010.4 |
| 20260507165329 | 20 | 223 | 1.6 | 8.0 | 0.00 | 4.34 | 1.98 | 92 | 1010.2 |
| 20260507164830 | 20 | 234 | 1.6 | 6.4 | 0.00 | 4.37 | 1.98 | 93 | 1010.2 |
| 20260507164333 | 19 | 265 | 1.6 | 4.8 | 0.00 | 4.39 | 1.98 | 94 | 1010.1 |
| 20260507163829 | 19 | 344 | 1.6 | 4.8 | 0.00 | 4.39 | 1.98 | 94 | 1010.0 |
| 20260507163701 | 19 | 320 | 1.6 | 4.8 | 0.00 | 4.39 | 1.98 | 94 | 1010.2 |
| 20260507162829 | 19 | 175 | 1.6 | 11.3 | 0.00 | 4.39 | 1.98 | 94 | 1010.2 |
| 20260507162330 | 18 | 252 | 1.6 | 11.3 | 0.00 | 4.39 | 1.98 | 94 | 1010.3 |
| 20260507161830 | 18 | 202 | 1.6 | 8.0 | 0.00 | 4.39 | 1.98 | 94 | 1010.1 |
| 20260507161326 | 18 | 205 | 3.2 | 12.9 | 0.00 | 4.39 | 1.98 | 95 | 1010.7 |
| 20260507160824 | 18 | 201 | 3.2 | 12.9 | 0.00 | 4.39 | 1.98 | 94 | 1010.8 |
| 20260507160323 | 19 | 244 | 1.6 | 9.7 | 0.00 | 4.39 | 1.98 | 95 | 1010.4 |
| 20260507155823 | 19 | 260 | 1.6 | 11.3 | 0.00 | 4.39 | 1.98 | 95 | 1010.0 |
| 20260507155323 | 19 | 251 | 1.6 | 11.3 | 0.03 | 4.39 | 1.98 | 95 | 1009.9 |
| 20260507154825 | 19 | 239 | 1.6 | 6.4 | 0.03 | 4.39 | 1.98 | 95 | 1010.2 |
| 20260507154320 | 19 | 195 | 1.6 | 4.8 | 0.05 | 4.39 | 1.98 | 95 | 1009.9 |
| 20260507153822 | 19 | 80 | 0.0 | 4.8 | 0.05 | 4.39 | 1.98 | 95 | 1009.4 |
| 20260507153321 | 19 | 318 | 1.6 | 3.2 | 0.08 | 4.39 | 1.98 | 96 | 1009.4 |
| 20260507152822 | 18 | 32 | 1.6 | 3.2 | 0.08 | 4.39 | 1.98 | 96 | 1009.0 |
| 20260507152320 | 18 | 355 | 0.0 | 3.2 | 0.10 | 4.39 | 1.98 | 96 | 1009.2 |
| 20260507151820 | 18 | 314 | 0.0 | 1.6 | 0.10 | 4.39 | 1.98 | 96 | 1009.6 |
| 20260507151317 | 18 | 306 | 0.0 | 1.6 | 0.13 | 4.39 | 1.98 | 96 | 1009.9 |
| 20260507150816 | 18 | 161 | 0.0 | 3.2 | 0.13 | 4.39 | 1.98 | 96 | 1009.9 |
| 20260507150311 | 18 | 161 | 0.0 | 3.2 | 0.13 | 4.39 | 1.98 | 96 | 1010.0 |
| 20260507145812 | 18 | 313 | 0.0 | 4.8 | 0.13 | 4.27 | 1.98 | 96 | 1010.1 |
| 20260507145311 | 18 | 178 | 0.0 | 4.8 | 0.13 | 4.27 | 1.96 | 96 | 1010.5 |
| 20260507144811 | 18 | 250 | 0.0 | 3.2 | 0.15 | 4.27 | 1.96 | 96 | 1010.8 |
| 20260507144527 | 18 | 207 | 1.6 | 3.2 | 0.13 | 4.27 | 1.93 | 96 | 1011.2 |
| 20260507144440 | 18 | 207 | 0.0 | 3.2 | 0.13 | 4.27 | 1.93 | 96 | 1011.1 |
| 20260507143315 | 18 | 316 | 1.6 | 3.2 | 0.10 | 4.27 | 1.91 | 96 | 1011.2 |
| 20260507142811 | 18 | 301 | 1.6 | 3.2 | 0.10 | 4.27 | 1.91 | 96 | 1011.4 |
| 20260507142312 | 18 | 238 | 0.0 | 3.2 | 0.08 | 4.27 | 1.88 | 96 | 1011.2 |
| 20260507141814 | 18 | 251 | 0.0 | 3.2 | 0.08 | 4.27 | 1.88 | 96 | 1011.1 |
| 20260507141311 | 18 | 272 | 0.0 | 1.6 | 0.05 | 4.27 | 1.85 | 96 | 1010.9 |
| 20260507140812 | 18 | 272 | 0.0 | 3.2 | 0.05 | 4.27 | 1.85 | 96 | 1010.7 |
| 20260507140312 | 18 | 282 | 1.6 | 3.2 | 0.05 | 4.27 | 1.85 | 96 | 1010.6 |
| 20260507135812 | 18 | 145 | 0.0 | 1.6 | 0.05 | 4.22 | 1.85 | 96 | 1010.4 |
| 20260507135310 | 18 | 145 | 0.0 | 3.2 | 0.03 | 4.22 | 1.83 | 96 | 1010.5 |
| 20260507135133 | 18 | 145 | 0.0 | 3.2 | 0.00 | 4.22 | 1.80 | 96 | 1010.3 |
| 20260507134311 | 18 | 170 | 0.0 | 3.2 | 0.00 | 4.22 | 1.80 | 96 | 1010.4 |
| 20260507133810 | 18 | 170 | 0.0 | 3.2 | 0.03 | 4.22 | 1.80 | 96 | 1010.4 |
| 20260507133312 | 17 | 173 | 0.0 | 3.2 | 0.03 | 4.22 | 1.80 | 96 | 1010.1 |
| 20260507132810 | 17 | 173 | 1.6 | 3.2 | 0.05 | 4.22 | 1.80 | 96 | 1010.0 |
| 20260507132311 | 17 | 173 | 0.0 | 3.2 | 0.08 | 4.22 | 1.80 | 96 | 1010.4 |
| 20260507131811 | 17 | 240 | 0.0 | 1.6 | 0.13 | 4.22 | 1.80 | 96 | 1010.5 |
| 20260507131310 | 17 | 240 | 0.0 | 1.6 | 0.15 | 4.22 | 1.80 | 96 | 1010.7 |
| 20260507130812 | 17 | 240 | 0.0 | 3.2 | 0.25 | 4.22 | 1.80 | 96 | 1010.7 |
| 20260507130309 | 17 | 257 | 0.0 | 3.2 | 0.30 | 4.22 | 1.80 | 96 | 1010.7 |